GW5905 Weather Reports


time (UTC)temp
F
wind
direction
speed
knots
gust
knots
rain 1hr
in
rain 24hr
in
rain mn
in
humidity
%
barometer
mb
20260506232517 59 224 0.9 0.9 0.00 0.24 0.24 99 1012.8
20260506231516 59 176 0.0 0.0 0.00 0.24 0.24 99 1012.7
20260506230515 59 170 0.9 0.9 0.00 0.24 0.24 99 1012.6
20260506225510 59 161 0.0 0.9 0.00 0.24 0.24 99 1012.6
20260506224509 59 193 0.0 0.0 0.00 0.24 0.24 99 1012.5
20260506223507 60 186 0.0 0.9 0.00 0.24 0.24 99 1012.5
20260506222506 60 182 0.0 0.0 0.00 0.24 0.24 99 1012.6
20260506221505 60 213 0.9 1.7 0.00 0.24 0.24 99 1012.6
20260506220503 60 158 0.0 0.0 0.12 0.24 0.24 99 1012.7
20260506215502 59 167 0.0 0.0 0.09 0.22 0.22 99 1012.6
20260506214500 59 196 0.0 0.0 0.26 0.21 0.21 99 1012.5
20260506213455 59 176 0.0 0.0 0.09 0.17 0.17 99 1012.7
20260506212453 59 167 0.0 0.0 0.00 0.15 0.15 99 1012.6
20260506211450 59 173 0.9 0.9 0.00 0.15 0.15 99 1012.9
20260506210450 59 122 0.9 0.9 0.07 0.15 0.15 99 1012.7
20260506205449 59 173 0.0 0.0 0.00 0.14 0.14 99 1012.8
20260506204449 59 91 0.9 1.7 0.00 0.14 0.14 99 1012.8
20260506203450 59 140 0.9 0.9 0.09 0.14 0.14 99 1012.8
20260506202449 59 158 0.9 0.9 0.09 0.13 0.13 99 1013.1
20260506201449 59 215 0.9 0.9 0.00 0.11 0.11 99 1013.3
20260506200448 59 166 0.0 0.0 0.00 0.11 0.11 99 1013.2
20260506195448 59 190 0.9 1.7 0.00 0.11 0.11 99 1013.3
20260506194442 59 181 0.0 0.9 0.05 0.11 0.11 99 1013.5
20260506193441 59 179 0.0 0.0 0.00 0.11 0.11 99 1013.6
20260506192441 59 202 1.7 1.7 0.07 0.11 0.11 99 1013.6
20260506191440 60 190 0.9 0.9 0.00 0.09 0.09 99 1013.7
20260506190439 60 133 2.6 2.6 0.09 0.09 0.09 99 1013.9
20260506185439 60 243 0.9 1.7 0.05 0.08 0.08 99 1013.9
20260506184438 60 178 0.0 0.0 0.07 0.07 0.07 99 1013.9
20260506183437 60 200 0.0 0.0 0.00 0.06 0.06 99 1013.9
20260506182432 60 173 0.9 0.9 0.05 0.06 0.06 99 1014.2
20260506181427 61 196 0.9 0.9 0.00 0.05 0.05 99 1014.1
20260506180425 61 139 1.7 1.7 0.00 0.05 0.05 99 1013.8
20260506175425 62 43 1.7 2.6 0.05 0.05 0.05 99 1014.0
20260506174420 62 226 1.7 1.7 0.05 0.04 0.04 99 1013.9
20260506173419 63 188 0.0 0.0 0.12 0.04 0.04 99 1014.4
20260506172419 64 165 0.0 0.0 0.12 0.03 0.03 96 1014.5
20260506171419 65 182 0.9 0.9 0.05 0.01 0.01 92 1014.8
20260506170419 67 258 1.7 2.6 0.00 0.00 0.00 87 1014.6
20260506165416 67 173 0.0 0.0 0.00 0.00 0.00 87 1014.8
20260506164414 68 174 0.0 0.9 0.00 0.00 0.00 85 1014.7
20260506163413 69 160 0.9 1.7 0.00 0.00 0.00 82 1014.8
20260506162412 68 172 1.7 1.7 0.00 0.00 0.00 81 1014.5
20260506161407 68 176 0.0 0.0 0.00 0.00 0.00 82 1014.9
20260506160407 68 172 0.0 0.0 0.00 0.00 0.00 81 1015.2
20260506155403 67 188 0.9 0.9 0.00 0.00 0.00 82 1015.1
20260506153525 66 130 0.9 0.9 0.00 0.00 0.00 84 1015.6
20260506152524 66 185 0.0 0.0 0.00 0.00 0.00 84 1015.8
20260506151520 66 66 1.7 1.7 0.00 0.00 0.00 84 1016.0
20260506150519 65 179 0.9 0.9 0.00 0.00 0.00 85 1016.1
20260506145519 65 182 0.9 0.9 0.00 0.00 0.00 85 1015.9
20260506144519 65 170 0.9 1.7 0.00 0.00 0.00 85 1016.2
20260506143514 64 146 0.9 1.7 0.00 0.00 0.00 85 1016.0
20260506142509 64 175 1.7 1.7 0.00 0.00 0.00 86 1016.3
20260506141505 65 242 2.6 2.6 0.00 0.00 0.00 85 1016.1
20260506140500 65 191 0.0 0.9 0.00 0.00 0.00 85 1016.1
20260506135500 65 331 1.7 1.7 0.00 0.00 0.00 86 1015.8
20260506134458 64 223 1.7 1.7 0.00 0.00 0.00 86 1015.7
20260506133457 63 185 1.7 4.3 0.00 0.00 0.00 88 1016.0
20260506132456 63 226 1.7 1.7 0.00 0.00 0.00 87 1015.8
20260506131457 63 266 0.0 0.9 0.00 0.00 0.00 88 1015.9
20260506130456 63 285 0.9 0.9 0.00 0.00 0.00 88 1016.3
20260506125452 62 201 0.0 0.9 0.00 0.00 0.00 89 1016.2
20260506124447 62 202 0.9 1.7 0.00 0.00 0.00 89 1016.3
20260506123442 62 194 0.0 0.0 0.00 0.00 0.00 89 1016.5
20260506122442 61 207 0.9 0.9 0.00 0.00 0.00 91 1016.4
20260506121437 60 182 0.0 0.0 0.00 0.00 0.00 92 1016.6
20260506120437 60 193 0.9 0.9 0.00 0.00 0.00 92 1016.6
20260506115432 60 233 0.9 0.9 0.00 0.00 0.00 93 1016.6
20260506114428 59 176 0.0 0.0 0.00 0.00 0.00 93 1016.7
20260506113424 59 173 0.0 0.0 0.00 0.00 0.00 93 1016.7
20260506112424 59 188 0.0 0.0 0.00 0.00 0.00 93 1016.6
20260506111419 59 178 0.0 0.0 0.00 0.00 0.00 93 1016.3
20260506110414 59 80 0.9 1.7 0.00 0.00 0.00 93 1016.6
20260506105412 58 206 0.0 0.0 0.00 0.00 0.00 95 1016.8
20260506104407 58 172 0.0 0.0 0.00 0.00 0.00 95 1016.7
20260506103402 58 170 0.0 0.9 0.00 0.00 0.00 95 1016.9
20260506102357 57 140 0.0 0.0 0.00 0.00 0.00 95 1016.8
20260506101356 57 168 0.0 0.0 0.00 0.00 0.00 96 1016.2
20260506100352 57 190 0.0 0.0 0.00 0.00 0.00 96 1016.6
20260506095347 57 179 0.0 0.0 0.00 0.00 0.00 95 1016.4
20260506094343 57 139 0.9 0.9 0.00 0.00 0.00 95 1016.3
20260506093343 57 173 0.0 0.0 0.00 0.00 0.00 94 1016.5
20260506092339 57 188 0.0 0.9 0.00 0.00 0.00 94 1016.3
20260506091339 57 151 0.0 1.7 0.00 0.00 0.00 94 1016.3
20260506090339 58 188 0.0 0.0 0.00 0.00 0.00 93 1016.3
20260506085338 58 182 0.0 0.0 0.00 0.00 0.00 92 1016.2
20260506084337 59 250 0.9 1.7 0.00 0.00 0.00 92 1016.5
20260506083337 59 142 0.0 0.0 0.00 0.00 0.00 91 1016.5
20260506082337 59 178 0.0 0.9 0.00 0.00 0.00 91 1016.6
20260506081337 59 136 0.0 0.9 0.00 0.00 0.00 91 1016.2
20260506080337 59 219 0.9 0.9 0.00 0.00 0.00 90 1016.5
20260506073327 60 165 0.0 0.0 0.00 0.00 0.00 88 1016.3
20260506072327 59 177 0.0 0.0 0.00 0.00 0.00 88 1016.5
20260506071323 59 163 0.0 0.0 0.00 0.00 0.00 87 1016.3
20260506070322 59 198 0.9 0.9 0.00 0.00 0.00 87 1016.4
20260506062306 60 188 0.0 0.0 0.00 0.00 0.00 83 1016.1
20260506061304 60 179 0.9 0.9 0.00 0.00 0.00 83 1016.3
20260506060300 61 181 0.9 0.9 0.00 0.00 0.00 82 1016.3
20260506051249 62 248 0.9 1.7 0.00 0.00 0.00 78 1016.3
20260506050244 62 183 0.9 0.9 0.00 0.00 0.00 78 1016.3
20260506044243 62 194 0.0 0.9 0.00 0.00 0.00 77 1016.5
20260506043238 62 193 0.9 0.9 0.00 0.00 0.00 77 1016.6
20260506042235 62 179 0.0 0.0 0.00 0.00 0.00 78 1016.6
20260506041230 63 183 0.0 0.0 0.00 0.00 0.00 76 1016.6
20260506040230 63 170 0.0 0.0 0.00 0.00 0.00 76 1016.5
20260506035229 63 151 0.0 0.0 0.00 0.00 0.00 75 1016.4
20260506034229 63 208 0.9 0.9 0.00 0.00 0.00 76 1016.5
20260506033230 63 176 0.0 0.0 0.00 0.00 0.00 75 1016.7
20260506032229 63 179 0.0 0.0 0.00 0.00 0.00 74 1016.5
20260506031229 64 200 0.9 1.7 0.00 0.00 0.00 73 1016.4
20260506030224 64 168 0.9 0.9 0.00 0.00 0.00 73 1016.4
20260506025223 64 166 0.0 0.0 0.00 0.00 0.00 73 1016.5
20260506024223 65 193 0.9 0.9 0.00 0.00 0.00 71 1016.5
20260506023222 65 275 2.6 6.1 0.00 0.00 0.00 71 1016.6
20260506022217 65 194 0.0 0.0 0.00 0.00 0.00 71 1016.2
20260506021217 66 184 0.0 0.0 0.00 0.00 0.00 71 1016.3
20260506020212 66 125 0.0 0.0 0.00 0.00 0.00 70 1016.1
20260506015213 66 187 0.0 0.0 0.00 0.00 0.00 70 1016.1
20260506014211 66 202 1.7 1.7 0.00 0.00 0.00 69 1016.3
20260506013206 67 179 0.0 0.0 0.00 0.00 0.00 69 1015.9
20260506012204 67 317 0.9 0.9 0.00 0.00 0.00 68 1016.0
20260506011203 67 116 0.0 0.0 0.00 0.00 0.00 68 1015.9
20260506010159 68 125 0.9 0.9 0.00 0.00 0.00 67 1015.8
20260506005159 68 151 0.0 0.9 0.00 0.00 0.00 67 1015.6
20260506004158 69 125 0.0 0.9 0.00 0.00 0.00 66 1015.6
20260506003156 69 226 0.0 0.9 0.00 0.00 0.00 64 1015.3
20260506002154 70 239 1.7 2.6 0.00 0.00 0.00 63 1015.1
20260506001153 70 182 0.0 0.0 0.00 0.00 0.00 63 1015.0
20260506000148 71 57 4.3 6.1 0.00 0.00 0.00 62 1014.8
20260505235148 71 222 0.9 1.7 0.00 0.00 0.00 61 1014.5
20260505234148 71 131 0.9 1.7 0.00 0.00 0.00 61 1014.3